sat.trackr.live / text

‹ back to catalog

STARLINK-34155

NORAD 64019 · 2025-101AB

PAYLOAD ACTIVE UNKNOWN

§ Identity

Operator
Country
US
Launch date
2025-05-14
Launch site
AFETR
Launch vehicle
Mass (kg)
RCS (m²)

Purposes: comms

External: N2YO · Heavens-Above · Gunter

§ Orbital elements

Epoch: 2026-09-20T22:23:53.449728Z

Period
94.27 min
Inclination
43.0045°
Eccentricity
0.0002619
Mean motion
15.27596142 rev/d
Perigee alt
481.2 km
Apogee alt
484.8 km
Semi-major
6,861.1 km
B*
4.4917e-4
RAAN
335.4577°
Arg perigee
281.6046°
Mean anomaly
78.4512°
Rev number
7,691

§ Raw data

STARLINK-341551 64019U 25101AB  26263.93325752  .00012125  00000+0  44917-3 0  99922 64019  43.0045 335.4577 0002619 281.6046  78.4512 15.27596142 76919

JSON: /api/v1/satellites/64019 · /tle

For live sub-satellite position, see the globe view (requires WebGL).

§ Visibility from observer

Set your observer location to see the next 7 days of passes ≥ 10°. The values pass through the URL so the page stays shareable.

No JS? Fill the form by hand. The geolocation button needs JavaScript.